This is the latest recevied weather packets stored in our database for station/object KR8N. If no packets are shown the sender has not sent any weather packets the latest 10 day(s).
| Time | Temp. | Humidity | Pressure | Rain* | Wind** | Luminosity | Snow |
|---|---|---|---|---|---|---|---|
| 1777734749 | 10° C | 48% | 1019 hPa | 0 mm | - | 862 W/m² | - |
| 1777734447 | 9.44° C | 48% | 1018.9 hPa | 0 mm | - | 738 W/m² | - |
| 1777734144 | 9.44° C | 55% | 1018.6 hPa | 0 mm | - | 735 W/m² | - |
| 1777733840 | 8.89° C | 51% | 1018.7 hPa | 0 mm | - | 372 W/m² | - |
| 1777733537 | 9.44° C | 53% | 1018.6 hPa | 0 mm | - | 349 W/m² | - |
| 1777733233 | 8.89° C | 52% | 1018.7 hPa | 0 mm | - | 531 W/m² | - |
| 1777732930 | 8.33° C | 56% | 1018.8 hPa | 0 mm | - | 428 W/m² | - |
| 1777732626 | 8.89° C | 56% | 1018.8 hPa | 0 mm | - | 371 W/m² | - |
| 1777732324 | 8.33° C | 57% | 1018.7 hPa | 0 mm | - | 470 W/m² | - |
| 1777732021 | 8.89° C | 52% | 1018.5 hPa | 0 mm | - | 391 W/m² | - |
| 1777731717 | 8.89° C | 54% | 1018.7 hPa | 0 mm | - | 435 W/m² | - |
| 1777731414 | 8.89° C | 53% | 1018.9 hPa | 0 mm | - | 320 W/m² | - |
| 1777731113 | 8.89° C | 56% | 1018.8 hPa | 0 mm | - | 349 W/m² | - |
| 1777730811 | 8.89° C | 54% | 1018.7 hPa | 0 mm | - | 551 W/m² | - |
| 1777730507 | 8.33° C | 56% | 1018.8 hPa | 0 mm | - | 574 W/m² | - |
| 1777730203 | 8.33° C | 59% | 1018.7 hPa | 0 mm | - | 553 W/m² | - |
| 1777729900 | 7.78° C | 62% | 1018.6 hPa | 0 mm | - | 463 W/m² | - |
| 1777729597 | 7.78° C | 62% | 1018.7 hPa | 0 mm | - | 391 W/m² | - |
| 1777729293 | 7.22° C | 61% | 1018.6 hPa | 0 mm | - | 322 W/m² | - |
| 1777728990 | 7.78° C | 61% | 1018.4 hPa | 0 mm | - | 273 W/m² | - |
| 1777728687 | 7.22° C | 64% | 1018.5 hPa | 0 mm | - | 360 W/m² | - |
| 1777728384 | 7.22° C | 66% | 1018.6 hPa | 0 mm | - | 501 W/m² | - |
| 1777728081 | 6.67° C | 70% | 1018.5 hPa | 0 mm | - | 363 W/m² | - |
| 1777727778 | 6.67° C | 70% | 1018.7 hPa | 0 mm | - | 191 W/m² | - |
| 1777727475 | 6.67° C | 71% | 1018.9 hPa | 0 mm | - | 194 W/m² | - |
* Rain latest hour (hover to see other rain measurements)
** Current wind speed in m/s (hover to see current wind gust speed)